[[{"header":{"parameterUnit":"m.s-1","parameterCategory":1,"la1":30.2991,"la2":30.254,"lo1":-89.0895,"lo2":-89.0444,"dy":0.0017,"dx":0.0017,"nx":28,"ny":28,"refTime":"2024-07-04T03:00:00:Z","depth":0,"parameterNumber":2,"parameterNumberName":"U-component_of_WINDS"},"data":[0,0,0,0,0,0,0,0,0,0,0,0,0,0,0,0,0,0,0,0,0,0,0,0,0,0,0,0,0,0,0,0,0,0,0,0,0,0,0,0,0,0,0,0,0,0,0,0,0,0,0,0,0,0,0,0,0,0,2.6908,2.6908,0,2.697,2.697,2.6971,2.6949,2.6948,2.6947,2.6945,2.7006,2.7009,2.7012,0,0,0,0,0,0,0,0,0,0,0,0,0,2.6766,2.6768,2.6908,2.6908,2.6909,2.697,2.697,2.6971,2.695,2.6948,2.6946,2.6945,2.7005,2.7008,2.7012,0,0,0,0,0,0,0,0,0,0,0,0,0,2.6827,2.6769,2.6907,2.6906,2.6906,2.6969,2.697,2.6972,2.695,2.6948,2.6946,2.6944,2.7004,2.7008,2.7012,2.708,0,0,2.7026,2.7027,0,0,0,0,0,0,0,0,2.6824,2.6833,2.6905,2.6906,2.6907,2.695,2.6943,2.7008,2.6951,2.6933,2.6945,2.6943,2.6989,2.6994,2.701,2.7083,2.7086,2.7026,2.7029,2.703,2.7032,0,0,0,0,0,0,0,2.682,2.683,2.6932,2.6906,2.6907,2.69,2.6907,2.6955,2.6972,2.6935,2.6933,2.6941,2.6989,2.7006,2.7012,2.7086,2.7026,2.703,2.7032,2.7034,2.7214,2.7216,0,0,0,0,0,0,2.6816,2.6826,2.693,2.6934,2.6859,2.6905,2.6912,2.6938,2.6971,2.6974,2.6943,2.694,2.7,2.7006,2.7014,2.7092,2.703,2.7035,2.7037,2.7211,2.7214,2.7216,0,0,0,0,0,0,2.6813,2.6825,2.6928,2.688,2.6892,2.6909,2.6939,2.694,2.6958,2.6977,2.698,2.6958,2.6998,2.7007,2.7063,2.7094,2.7036,2.704,2.7209,2.7212,2.7215,2.7251,0,0,0,0,0,0,2.6809,2.6824,2.6851,2.6881,2.6895,2.6978,2.6941,2.6943,2.6966,2.6962,2.6992,2.6995,2.6997,2.7057,2.7067,2.7099,2.7044,2.7206,2.721,2.7214,2.7247,2.7255,2.7262,0,0,0,0,0,2.6804,2.6859,2.6853,2.6865,2.693,2.6979,2.6987,2.699,2.6968,2.6994,2.7007,2.6994,2.7089,2.7063,2.7074,2.7107,2.7204,2.7209,2.7214,2.7244,2.7253,2.7262,0,0,0,0,0,0,2.6833,2.6863,2.6856,2.6923,2.6949,2.6976,2.7009,2.7001,2.7033,2.7028,2.703,2.7036,2.7093,2.7106,2.7076,2.7173,2.7143,2.7151,2.7162,2.7171,2.7178,2.7173,2.7047,0,0,0,0,0,2.6847,2.6886,2.691,2.6967,2.698,2.6993,2.7014,2.7014,2.704,2.7051,2.7067,2.7092,2.7127,2.715,2.7184,2.725,2.7254,2.7278,2.7285,2.7291,2.7297,2.7329,2.7339,2.7232,2.7232,2.7232,0,0,2.6877,2.6898,2.6923,2.6973,2.6993,2.7031,2.7002,2.7045,2.7072,2.7057,2.711,2.7123,2.715,2.721,2.7237,2.7223,2.7327,2.7298,2.7302,2.7304,2.7335,2.7345,2.7354,2.7236,2.7235,2.7235,0,0,2.695,2.6971,2.7019,2.7039,2.707,2.7077,2.7089,2.7117,2.7124,2.7178,2.7166,2.7198,2.726,2.7279,2.7297,2.7375,2.7363,2.7386,2.7423,2.7455,2.7463,2.747,2.7495,2.7504,2.7392,2.7392,2.7392,0,2.6982,2.7041,2.7045,2.7088,2.7108,2.7097,2.7144,2.7163,2.7203,2.7216,2.72,2.7275,2.7293,2.7355,2.7374,2.739,2.7401,2.7381,2.7462,2.7469,2.7476,2.7499,2.7509,2.7394,2.7394,2.7394,2.7394,0,2.7078,2.7119,2.7153,2.7191,2.7217,2.7262,2.727,2.7295,2.7292,2.73,2.7353,2.7374,2.741,2.7426,2.7424,2.7487,2.7476,2.7461,2.7431,2.7488,2.751,2.7519,2.7398,2.7397,2.7396,2.7396,0,0,2.717,2.7209,2.7221,2.7237,2.7269,2.7299,2.7343,2.7378,2.7398,2.7426,2.746,2.7511,2.7496,2.7516,2.7516,2.7544,2.76,2.7525,2.7525,2.7535,2.7667,2.7676,2.7686,2.7593,2.7595,2.7597,2.7663,0,2.7243,2.732,2.7323,2.7392,2.7427,2.7416,2.7453,2.7475,2.7484,2.7514,2.7524,2.7559,2.7539,2.755,2.7577,2.7587,2.7626,2.7583,2.7622,2.7623,2.7613,2.7698,2.7709,2.777,2.7672,2.7673,2.7675,0,2.7339,2.7368,2.7441,2.7464,2.7479,2.7513,2.7544,2.7574,2.7598,2.7603,2.7624,2.762,2.7661,2.7631,2.7687,2.7657,2.7674,2.7681,2.7683,2.7685,2.7651,2.7699,2.7791,2.7799,2.7689,2.7687,2.7686,0,2.7394,2.7453,2.7503,2.7517,2.7547,2.757,2.7583,2.7606,2.7626,2.7653,2.7666,2.7698,2.7715,2.7738,2.7741,2.772,2.7796,2.7767,2.7798,2.7798,2.7812,2.7811,2.7905,2.7828,2.7828,2.7828,2.7827,0,2.7474,2.7517,2.7528,2.7558,2.7605,2.7608,2.7655,2.7666,2.7686,2.7716,2.7709,2.7738,2.7742,2.7771,2.7774,2.7817,2.7825,2.7828,2.7828,2.7827,2.7826,2.7836,2.783,2.783,2.783,2.7829,2.7829,0,2.7543,2.7553,2.7605,2.7629,2.7636,2.767,2.7689,2.7717,2.7725,2.7763,2.7773,2.7784,2.7818,2.7824,2.7864,2.7865,2.7916,2.7913,2.7908,2.7906,2.7936,2.7932,2.8037,2.8049,2.7967,2.7968,2.7969,0,2.7592,2.7625,2.7652,2.7672,2.7687,2.772,2.774,2.7744,2.7765,2.7793,2.7817,2.785,2.7876,2.793,2.7941,2.797,2.7966,2.8001,2.797,2.7967,2.7962,2.7959,2.7961,2.8006,2.8006,2.8007,2.8008,0,2.7676,2.7678,2.7709,2.774,2.7764,2.7789,2.7812,2.7829,2.7835,2.7859,2.7893,2.7913,2.7953,2.7984,2.8014,2.8025,2.8017,2.8018,2.8026,2.8024,2.8018,2.8018,2.792,2.8015,2.8014,2.8013,2.8013,2.8013,2.7735,2.7762,2.7785,2.7817,2.7835,2.7857,2.7883,2.7894,2.7923,2.7955,2.7956,2.7992,2.8013,2.8051,2.8065,2.8092,2.808,2.8093,2.8096,2.8098,2.8099,2.8016,2.8098,2.8097,2.8097,2.8097,2.8097,0,2.7815,2.7829,2.7859,2.7891,2.7917,2.7908,2.7932,2.7953,2.7986,2.8006,2.8032,2.8069,2.81,2.8113,2.8142,2.8161,2.8157,2.8168,2.8165,2.8167,2.8109,2.8098,2.817,2.817,2.817,2.817,2.817,2.817,2.786,2.7905,2.791,2.7962,2.7976,2.8012,2.8026,2.8044,2.806,2.8103,2.8128,2.8137,2.8153,2.8183,2.8209,2.8212,2.8222,2.8234,2.8234,2.8179,2.8172,2.8165,2.8154,2.8236,2.8237,2.8289,2.829,2.829]},{"header":{"parameterUnit":"m.s-1","parameterCategory":1,"la1":30.2991,"la2":30.254,"lo1":-89.0895,"lo2":-89.0444,"dy":0.0017,"dx":0.0017,"nx":28,"ny":28,"refTime":"2024-07-04T03:00:00:Z","depth":0,"parameterNumber":3,"parameterNumberName":"V-component_of_WINDS"},"data":[0,0,0,0,0,0,0,0,0,0,0,0,0,0,0,0,0,0,0,0,0,0,0,0,0,0,0,0,0,0,0,0,0,0,0,0,0,0,0,0,0,0,0,0,0,0,0,0,0,0,0,0,0,0,0,0,0,0,3.3148,3.3149,0,3.3215,3.3216,3.3217,3.318,3.3178,3.3176,3.3174,3.3241,3.3244,3.3247,0,0,0,0,0,0,0,0,0,0,0,0,0,3.2983,3.2986,3.3148,3.3149,3.3149,3.3215,3.3216,3.3217,3.318,3.3178,3.3175,3.3173,3.3239,3.3244,3.3248,0,0,0,0,0,0,0,0,0,0,0,0,0,3.3053,3.2987,3.3148,3.3139,3.3139,3.3215,3.3216,3.3217,3.318,3.3178,3.3175,3.3172,3.3238,3.3243,3.3248,3.3336,0,0,3.3264,3.3267,0,0,0,0,0,0,0,0,3.3049,3.3059,3.3139,3.314,3.314,3.3186,3.3182,3.3257,3.3181,3.3165,3.3174,3.3171,3.3225,3.3231,3.3249,3.3339,3.3342,3.3265,3.3268,3.327,3.3272,0,0,0,0,0,0,0,3.3044,3.3056,3.3174,3.3141,3.3141,3.313,3.3137,3.3196,3.3209,3.3166,3.3163,3.3172,3.3224,3.3244,3.3251,3.3343,3.3265,3.3269,3.3272,3.3274,3.3505,3.3508,0,0,0,0,0,0,3.304,3.3052,3.3172,3.3176,3.3087,3.3135,3.3143,3.3174,3.3208,3.3211,3.3174,3.317,3.3237,3.3245,3.3253,3.3356,3.327,3.3275,3.3278,3.3502,3.3505,3.3509,0,0,0,0,0,0,3.3037,3.3051,3.3169,3.3113,3.3128,3.3141,3.3176,3.3177,3.3197,3.3215,3.3217,3.3193,3.3235,3.3245,3.3315,3.3358,3.3277,3.3282,3.3498,3.3503,3.3507,3.3564,0,0,0,0,0,0,3.3032,3.305,3.3085,3.3115,3.3131,3.3232,3.3179,3.318,3.3207,3.3202,3.3233,3.3235,3.3234,3.3307,3.332,3.3363,3.3286,3.3494,3.35,3.3506,3.3558,3.357,3.3579,0,0,0,0,0,3.3026,3.3098,3.3087,3.3102,3.3175,3.3235,3.3244,3.3241,3.321,3.3244,3.3255,3.3234,3.3351,3.3315,3.3329,3.3374,3.3492,3.3499,3.3505,3.3553,3.3567,3.3579,0,0,0,0,0,0,3.3073,3.3102,3.309,3.3173,3.3202,3.3228,3.3271,3.3257,3.3294,3.3288,3.3282,3.3289,3.3361,3.3375,3.3334,3.3459,3.3416,3.3426,3.3448,3.3462,3.3472,3.3467,3.3291,0,0,0,0,0,3.3093,3.314,3.3163,3.3234,3.3249,3.3258,3.3284,3.3279,3.3308,3.332,3.3336,3.3364,3.3406,3.3435,3.3475,3.356,3.3565,3.3598,3.3608,3.3617,3.3625,3.3669,3.3683,3.3531,3.3531,3.353,0,0,3.3134,3.3156,3.3186,3.3244,3.3266,3.3313,3.3268,3.3321,3.3356,3.3328,3.3394,3.3407,3.3437,3.3514,3.3549,3.3528,3.3669,3.3626,3.3632,3.3636,3.3677,3.3692,3.3704,3.3535,3.3534,3.3534,0,0,3.3234,3.3257,3.3318,3.334,3.3373,3.3378,3.3393,3.3421,3.3428,3.3495,3.3474,3.3515,3.3589,3.3611,3.3632,3.3739,3.372,3.3752,3.3807,3.385,3.3862,3.3872,3.3909,3.3922,3.376,3.376,3.3761,0,3.3282,3.3354,3.3351,3.3405,3.343,3.3407,3.3467,3.3489,3.3533,3.355,3.3526,3.3617,3.3636,3.3717,3.3743,3.3761,3.3776,3.3748,3.3861,3.3871,3.3881,3.3915,3.3929,3.3764,3.3764,3.3763,3.3763,0,3.3409,3.346,3.3505,3.3549,3.3579,3.3636,3.3639,3.367,3.3662,3.3669,3.3736,3.3758,3.3802,3.3821,3.3814,3.39,3.3885,3.3861,3.3817,3.3899,3.3931,3.3945,3.3769,3.3768,3.3767,3.3766,0,0,3.3541,3.3581,3.3598,3.3616,3.365,3.3689,3.3744,3.3787,3.3812,3.3843,3.3888,3.395,3.3927,3.3951,3.3946,3.3984,3.4064,3.3955,3.3955,3.3973,3.4158,3.4175,3.4191,3.4052,3.4055,3.4057,3.4155,0,3.3642,3.374,3.3737,3.3827,3.3872,3.385,3.3897,3.3923,3.393,3.3968,3.3976,3.402,3.3988,3.4001,3.4038,3.4047,3.4101,3.404,3.4092,3.4094,3.4085,3.4208,3.4227,3.4319,3.4168,3.417,3.4171,0,3.3774,3.3809,3.3904,3.3929,3.3948,3.3991,3.4029,3.4066,3.4093,3.4096,3.4122,3.4111,3.4164,3.412,3.4193,3.4151,3.4172,3.418,3.4183,3.4187,3.4137,3.4214,3.4348,3.4361,3.4192,3.419,3.4189,0,3.3858,3.3929,3.3995,3.4011,3.4043,3.4074,3.4088,3.4113,3.4138,3.4171,3.4187,3.4225,3.4246,3.4276,3.4274,3.4242,3.4348,3.4303,3.435,3.435,3.4373,3.4371,3.4511,3.4389,3.4388,3.4388,3.4388,0,3.3971,3.4029,3.4033,3.4073,3.4137,3.4132,3.4195,3.4206,3.4228,3.4268,3.4251,3.4289,3.4286,3.4324,3.4323,3.4383,3.4393,3.4395,3.4394,3.4396,3.4396,3.4409,3.4402,3.4392,3.4391,3.439,3.439,0,3.4076,3.4081,3.415,3.4175,3.4182,3.4228,3.4248,3.4285,3.429,3.4341,3.4353,3.4362,3.4405,3.4407,3.4457,3.4456,3.4528,3.4521,3.4519,3.4518,3.4564,3.4559,3.4716,3.4735,3.4602,3.4603,3.4604,0,3.4147,3.4191,3.422,3.4246,3.4263,3.4305,3.4331,3.4327,3.4354,3.4388,3.442,3.4462,3.4496,3.4566,3.4576,3.4613,3.4606,3.4658,3.4611,3.4611,3.4605,3.4602,3.4605,3.4667,3.4669,3.467,3.4671,0,3.4272,3.4272,3.431,3.4349,3.438,3.441,3.4438,3.446,3.446,3.4491,3.4535,3.4561,3.4612,3.4653,3.4689,3.4702,3.4686,3.4685,3.4698,3.47,3.4697,3.4698,3.4543,3.4682,3.4681,3.468,3.4679,3.4679,3.4362,3.4399,3.4425,3.4467,3.4488,3.4514,3.4549,3.4559,3.4596,3.4638,3.4633,3.4682,3.4706,3.4753,3.4769,3.4806,3.4788,3.4807,3.4811,3.4815,3.482,3.4692,3.4813,3.4813,3.4812,3.4812,3.4812,0,3.4484,3.4499,3.4539,3.4578,3.4611,3.4593,3.4622,3.4651,3.4694,3.4718,3.4751,3.4801,3.4841,3.4853,3.4891,3.4918,3.4912,3.4928,3.4926,3.4928,3.4835,3.4819,3.4933,3.4933,3.4933,3.4933,3.4933,3.4933,3.4552,3.4614,3.4617,3.4688,3.4702,3.475,3.4768,3.4791,3.481,3.4867,3.49,3.4908,3.4927,3.4966,3.5,3.5003,3.5017,3.5036,3.5036,3.4948,3.4935,3.4924,3.4909,3.504,3.504,3.5126,3.5127,3.5128]}]]